TITAN 3C TRANSTAGE DEB, 1680

Orbit data source: Space-Track

TITAN 3C TRANSTAGE DEB, 1680 is space debris in LEO originally from a launch on Fri, 15 Oct 1965 UTC launched from the Air Force Eastern Test Range (AFETR). Debris objects in space refer to the collection of defunct objects orbiting the Earth. Examples of debris include non-operational satellites, rocket bodies, and fragments generated from explosions, collisions, or faulty payload assembly.

Loading next visibility...
Identifier
1680, 1965-082AT
Orbit
LEO
Country
Flag of USUS
Related business
Manufacturer
Unknown
Mission
Spacecraft
Bus & Motor
Unknown
Mass
Unknown
Launch date (UTC)
1965-10-15 (61 years ago)
Launch vehicle
Unknown
Launch site
Air Force Eastern Test Range (AFETR)
Object type
Payload
Rocket body
Debris
Shape & HBR
Unknown shape, 1.2 m
Radar Cross Section
Large (>1 m²)

Expand to show TLE details & history
Last TLE update: 18 hours ago

TLE from 18 hours ago
0 TITAN 3C TRANSTAGE DEB
1 01680U 65082AT  26207.32533412  .00000441  00000-0  72716-4 0  9992
2 01680  32.2561 292.8453 0020599 227.2148 132.6767 14.65754972219408
Epoch: 2026-07-26T07:48Z
TLE epoch observation values (Epoch: 2026-07-26T07:48:28.867Z)
Latitude
-0.00006°
Longitude
-128.29996°
Altitude
683.174 km
Speed
7.512 km/s
True Right ascension
19h 31m 22s
True Declination
0° 00' 00"
Sunlit
Object was in full shadow at epoch
Visualization orbit readout
Latitude
Unknown
Longitude
Unknown
Altitude
Unknown
Speed
Unknown
Apparent Right ascension
Unknown
Apparent Declination
Unknown
Sunlit
N/A
Visualization observer readout
Local Sidereal Time
15:31:33
Azimuth
Unknown
Elevation
Unknown
Doppler factor
Unknown
Orbital elements
Apogee altitude
692.77 km
Perigee altitude
663.699 km
Semi-major axis
7,056.372 km
Eccentricity
0.00206
Inclination
32.2561°
RAAN
292.8453°
Arg. of periapsis
227.2148°
True anomaly
132.84994°
Mean anomaly
132.6767°
Eccentric anomaly
132.76335°
Mean motion
3.6616 °/min
Orbital period
98.32 mins
BSTAR
0.000072716

Documentation

Showing up to 5 results
|